SCP
0 0 0 0 0 0 0 0 0 0 0 0 0 0 0 0 0 0 0 0 0 0 0 0 0 0 0 0 0 0 0 0 0 0 0 0 0 0 0 0 0 0 0 0
0 0 0 0 0 0 0 0 0 0 0 0 0 0 0 0 0 0 0 0 0 0 0 0 0 0 0 0 0 0 0 0 0 0 0 0 0 0 0 0 0 0 0 0
0 0 0 0 0 0 0 0 0 0 0 0 0 0 0 0 0 0 0 0 0 0 0 0 0 0 0 0 0 0 0 0 0 0 0 0 0 0 0 0 0 0 0 0
0 0 0 0 0 0 0 0 0 0 0 0 0 0 0 0 0 0 0 0 0 0 0 0 0 0 0 0 0 0 0 0 0 0 0 0 0 0 0 0 0 0 0 0
0 0 0 0 0 0 -0 0 0 0 0 0 0 0 0 0 0 0 0 0 0 0 0 0 0 0 0 0 0 0 0 0 0 0 0 0 0 0 0 0 0 0 0 0
0 0 0 0 0 -0 -0 -0 -0 0 0 0 0 0 0 0 0 0 0 0 0 0 0 0 0 0 0 0 0 0 0 0 0 0 0 0 0 0 0 0 0 0 0 0
0 0 0 0 0 0 0 0 0 0 0 0 0 0 0 0 0 0 0 0 0 0 0 0 0 0 0 0 0 0 0 0 0 0 0 0 0 0 0 0 0 0 0 0
0 0 0 0 0 0 0 0 0 0 0 0 0 0 0 0 0 0 0 0 0 0 0 0 0 0 0 0 0 0 0 0 0 0 0 0 0 0 0 0 0 0 0 0
0 0 0 0 0 0 0 0 0 0 0 0 0 0 0 0 0 0 0 0 0 0 0 0 0 0 0 0 0 0 0 0 0 0 0 0 0 0 0 0 0 0 0 0
0 0 0 0 0 0 0 0 0 0 0 0 0 0 0 0 0 0 0 0 0 0 0 0 0 0 0 0 0 0 0 0 0 0 0 0 0 0 0 0 0 0 0 0
0 0 0 0 0 0 0 0 0 0 0 0 0 0 0 0 0 0 0 0 0 0 0 0 0 0 0 0 0 0 0 0 0 0 0 0 0 0 0 0 0 0 0 0
0 0 0 0 0 0 0 0 0 0 0 0 -0 0 0 0 0 0 0 0 0 0 0 0 0 0 0 0 0 0 0 0 0 0 0 0 0 0 0 0 0 0 0 0
0 0 0 0 0 0 0 0 0 0 0 0 0 0 0 0 0 0 0 0 0 0 0 0 0 0 0 0 0 0 0 0 0 0 0 0 0 0 0 0 0 0 0 0
0 0 0 0 0 0 0 0 0 0 0 0 0 0 0 0 0 0 0 0 0 0 0 0 0 0 0 0 0 0 0 0 0 0 0 0 0 0 0 0 0 0 0 0
0 0 0 0 0 0 0 0 0 0 0 0 0 0 0 0 0 0 0 0 0 0 0 0 0 0 0 0 0 0 0 0 0 0 0 0 0 0 0 0 0 0 0 0
0 0 0 0 0 0 0 0 0 0 0 0 0 0 0 0 0 0 0 0 0 0 0 0 0 0 0 0 0 0 0 0 0 0 0 0 0 0 0 0 0 0 0 0
0 0 0 0 0 0 0 0 0 0 0 0 0 0 0 0 0 0 0 0 0 0 0 0 0 0 0 0 0 0 0 0 0 0 0 0 0 0 0 0 0 0 0 0
-0 0 0 0 0 0 0 0 0 0 0 0 0 0 0 0 0 0 0 0 0 0 0 0 0 0 0 0 0 0 0 0 0 0 0 0 0 0 0 0 0 0 0 0
-0 0 0 0 0 0 0 0 0 0 0 0 0 0 0 0 0 0 0 0 0 0 0 0 0 0 0 0 0 0 0 0 0 0 0 0 0 0 0 0 0 0 0 0
0 0 0 0 0 0 0 0 0 0 0 0 0 0 0 0 0 0 0 0 0 0 0 0 0 0 0 0 0 0 0 0 0 0 0 0 0 0 0 0 0 0 0 0
0 0 0 0 0 0 0 0 0 0 0 0 0 0 0 0 0 0 0 0 0 0 0 0 0 0 0 0 0 0 0 0 0 0 0 0 0 0 0 0 0 0 0 0
0 0 0 0 0 0 0 0 0 0 0 0 0 0 0 0 0 0 0 0 0 0 0 0 0 0 0 0 0 0 0 0 0 0 0 0 0 0 0 0 0 0 0 0
0 0 0 0 0 0 0 0 0 0 0 0 0 0 0 0 0 0 0 0 0 0 0 0 0 0 0 0 0 0 0 0 0 0 0 0 0 0 0 0 0 0 0 0
0 0 0 0 0 0 0 0 0 0 0 0 0 0 0 0 0 0 0 0 0 0 0 0 0 0 0 0 0 0 0 0 0 0 0 0 0 0 0 0 0 0 0 0
0 0 0 0 0 0 0 0 0 0 0 0 0 0 0 0 0 0 0 0 0 0 0 0 0 0 0 0 0 0 0 0 0 0 0 0 0 0 0 0 0 0 0 0
0 0 0 0 0 0 0 0 0 0 0 0 0 0 0 0 0 0 0 0 0 0 0 0 0 0 0 0 0 0 0 0 0 0 0 0 0 0 0 0 0 0 0 0
0 0 0 0 0 0 0 0 0 0 0 0 0 0 0 0 0 0 0 -0 0 0 0 0 0 0 0 0 0 0 0 0 0 0 0 0 0 0 0 0 0 0 0 0
Wind_Speed
6 5 5 8 9 10 12 12 11 12 12 12 10 9 8 6 6 5 6 5 5 4 3 3 3 3 2 2 2 2 2 2 2 2 2 2 2 2 2 2 3 3 3 3
6 6 7 10 12 13 15 14 15 14 16 12 9 8 8 8 7 7 7 6 6 5 4 4 4 3 3 3 3 3 3 2 2 2 2 2 2 2 2 3 3 3 3 4
5 4 5 11 12 14 13 13 13 15 13 8 8 9 9 9 8 8 7 6 6 6 5 5 4 4 4 3 3 3 3 3 3 2 2 2 2 2 3 3 3 3 4 4
3 2 9 5 1 7 11 12 12 12 10 9 10 8 8 8 8 8 8 7 6 5 5 4 3 3 3 3 3 3 3 3 3 3 3 3 3 3 3 3 3 4 4 5
4 6 10 7 4 6 8 9 11 13 13 10 6 6 8 7 7 8 7 6 6 5 5 4 4 4 4 4 3 3 4 4 3 3 3 3 3 3 3 3 4 4 4 5
5 6 8 3 2 2 3 7 5 9 10 7 5 6 5 3 5 6 6 5 5 4 4 4 4 3 4 4 4 4 4 4 4 4 4 4 4 4 3 4 4 4 5 5
8 8 9 2 4 5 6 4 1 4 6 6 7 6 3 2 4 4 4 4 4 4 4 4 4 4 5 5 5 4 4 4 4 4 4 4 4 4 4 4 4 4 5 5
7 8 9 5 7 8 5 1 2 4 5 6 7 5 4 4 4 4 3 4 4 4 4 3 3 4 5 5 4 3 4 4 4 4 3 3 4 4 4 4 5 5 4 5
8 8 3 7 8 6 3 4 4 4 5 5 5 6 5 5 4 4 4 4 4 4 3 3 3 5 6 4 3 3 4 4 4 4 4 4 4 4 4 4 4 4 4 4
8 11 8 8 9 8 7 7 6 5 5 6 6 6 5 4 4 4 4 4 4 4 4 4 4 4 5 4 3 4 4 4 4 4 3 3 3 4 4 4 4 4 4 4
11 11 8 9 11 11 9 7 6 6 6 6 6 6 5 5 5 4 4 4 4 4 4 5 4 4 4 4 4 5 4 4 4 4 4 4 4 4 4 5 5 5 5 4
10 8 7 7 6 8 8 9 8 7 6 6 6 6 6 5 5 4 4 4 4 4 4 4 4 4 3 4 4 5 4 4 4 3 3 3 4 4 6 7 8 9 9 8
9 6 7 8 7 7 8 9 8 7 7 6 6 5 5 5 4 4 4 5 5 5 4 4 4 4 4 4 4 5 5 4 3 3 4 4 4 4 4 4 7 8 9 9
9 7 8 8 7 6 7 7 6 5 6 5 5 4 4 4 4 5 5 5 4 4 4 4 4 4 4 4 5 5 5 5 5 4 4 4 4 4 4 4 4 4 5 8
10 10 9 6 5 4 4 4 4 5 4 4 4 4 5 5 5 5 4 3 3 4 4 4 4 4 3 4 5 5 5 4 4 4 4 4 4 4 4 5 5 5 4 5
8 7 8 8 8 6 5 6 6 6 5 5 4 5 5 5 4 4 4 4 4 5 4 4 5 4 4 4 4 4 4 6 5 4 4 4 4 4 4 4 5 5 5 4
7 8 8 9 9 8 8 7 7 6 5 5 5 4 4 4 3 4 4 4 4 4 4 4 4 4 4 4 5 4 4 4 6 5 4 4 4 4 4 5 5 5 5 5
10 9 8 7 7 8 7 6 6 6 6 5 4 4 5 5 5 5 4 3 2 3 4 4 4 3 4 4 4 3 3 3 3 4 4 4 4 4 5 5 5 6 5 5
7 7 7 6 6 6 6 6 5 5 4 4 5 5 5 5 4 4 3 3 4 4 4 3 4 4 4 4 4 3 3 3 4 4 4 5 5 5 5 5 5 5 5 5
4 5 5 4 3 4 5 4 4 4 4 4 4 4 4 4 3 3 4 4 4 3 2 3 3 3 3 3 4 3 3 4 4 4 4 4 4 4 4 5 5 5 5 4
3 3 2 2 2 2 3 4 4 4 3 4 5 5 4 3 3 3 3 3 2 2 2 3 2 2 2 2 3 3 3 3 3 3 4 4 4 4 4 4 4 4 4 4
2 2 2 2 2 1 1 2 3 3 3 3 3 3 3 3 3 2 3 2 2 2 2 2 2 2 2 3 2 2 2 3 3 3 3 3 3 4 4 4 4 4 4 4
1 1 1 1 1 1 0 1 2 2 3 3 3 3 3 3 2 2 2 2 2 3 2 2 2 3 3 2 2 2 2 3 3 3 3 3 3 3 3 3 3 3 4 4
0 0 0 1 1 2 1 1 1 1 1 2 2 2 2 2 1 1 1 2 3 2 1 2 2 2 2 1 1 2 2 2 3 3 3 3 3 3 3 3 3 4 4 5
1 1 1 2 1 1 1 1 2 2 2 1 1 1 1 1 1 1 1 2 2 2 1 1 2 1 1 1 1 1 2 2 2 3 3 2 3 3 3 3 3 4 4 4
1 1 1 1 1 1 1 1 1 1 1 1 1 1 1 0 1 1 1 1 1 1 0 0 0 0 0 0 1 1 2 2 2 2 2 3 3 3 3 3 4 4 4 4
1 1 1 1 1 1 1 1 1 1 1 1 1 0 1 1 1 1 1 1 0 0 0 0 0 0 0 1 1 1 1 2 2 2 2 2 3 3 3 4 4 4 4 4
Wind_Direction
265 270 254 250 241 227 230 239 245 253 257 262 260 258 256 248 244 242 240 240 240 244 242 230 224 222 217 213 210 209 208 209 218 234 245 250 255 263 271 274 278 282 283 282
260 256 255 261 248 236 239 244 248 259 265 267 270 266 258 249 242 239 239 236 236 239 240 234 227 223 216 213 212 219 221 220 220 228 233 240 248 255 258 264 270 275 275 276
259 280 274 260 237 225 230 231 232 241 252 259 257 250 249 246 240 237 238 233 230 231 232 232 227 223 222 218 212 216 220 222 224 231 238 245 252 254 259 267 272 271 275 276
249 234 244 254 200 218 231 243 237 247 256 256 260 271 266 250 240 239 237 232 228 229 230 226 218 215 212 207 210 217 224 228 228 234 246 255 258 262 270 273 273 276 278 277
213 240 266 266 221 201 217 253 234 238 249 258 273 279 259 235 235 239 236 231 226 224 219 214 214 208 202 205 210 219 227 233 234 235 242 248 255 263 268 269 272 276 278 277
213 233 248 258 141 171 208 261 229 227 241 245 232 251 252 213 232 237 236 229 221 214 209 210 212 203 206 213 217 225 231 235 234 235 239 245 254 259 262 264 268 273 275 275
225 240 259 253 144 164 212 255 191 218 230 223 228 256 301 241 234 232 229 223 212 206 210 213 208 203 215 222 227 232 235 235 234 235 239 245 252 254 257 260 267 271 275 276
211 229 246 161 164 208 246 321 243 243 236 235 250 270 269 250 240 232 225 219 211 210 218 218 209 208 222 230 230 227 226 229 231 233 235 240 245 251 253 257 264 269 273 279
215 233 273 184 209 235 254 253 254 250 249 246 254 258 254 248 241 235 228 223 218 212 221 230 223 217 229 232 219 218 223 229 231 232 235 238 243 249 252 253 259 267 270 277
251 255 251 241 245 249 247 254 265 260 251 242 249 251 248 243 238 232 229 224 216 210 220 229 229 228 233 227 214 216 221 226 229 230 234 236 241 245 249 250 256 262 266 274
251 262 270 255 240 243 249 256 259 258 249 241 240 245 242 239 234 230 229 222 213 214 223 231 229 230 230 221 207 214 221 225 228 231 236 240 242 247 251 252 257 261 264 268
242 241 238 254 250 244 244 245 245 247 253 248 240 241 241 240 235 229 225 219 217 223 228 232 228 229 228 220 210 211 218 223 225 227 232 240 247 254 250 254 267 267 270 273
253 257 254 267 270 253 248 251 248 243 242 245 245 235 232 239 235 225 221 219 221 226 230 231 230 231 227 218 212 216 223 226 227 229 232 239 245 252 263 257 254 261 267 272
245 247 255 251 254 253 251 253 250 247 246 241 234 225 220 228 227 223 226 225 222 225 227 228 229 235 231 220 213 217 224 227 230 233 235 239 243 249 254 263 269 267 265 268
238 236 245 257 261 255 246 238 235 238 237 236 225 219 215 218 225 230 228 216 211 220 223 222 229 238 229 222 218 218 220 221 224 232 236 240 244 249 252 256 262 270 273 268
242 239 240 244 247 244 237 231 231 238 236 235 229 226 225 224 226 226 219 205 207 221 220 220 232 237 225 221 222 222 223 227 229 231 233 237 241 246 250 254 258 261 264 269
226 233 232 237 239 237 234 231 232 234 234 232 229 221 212 208 213 220 221 218 222 227 223 223 233 232 222 221 223 223 221 220 227 232 232 236 240 244 248 252 255 259 262 266
230 234 228 230 230 231 234 232 229 229 230 231 222 208 204 205 213 220 219 212 217 233 234 230 229 224 222 222 224 222 219 221 224 232 235 237 242 245 248 250 254 258 264 265
235 236 234 235 232 225 226 226 224 225 224 213 205 209 214 215 213 210 198 198 212 232 240 228 227 227 226 227 221 215 215 220 226 233 238 244 248 246 246 248 252 256 260 260
246 241 235 236 234 222 221 221 215 215 213 201 198 202 208 212 199 193 197 214 227 238 227 224 222 225 226 221 216 214 215 221 229 235 238 240 245 248 248 249 252 254 254 254
249 240 225 216 232 235 221 211 203 204 202 193 196 202 207 206 193 189 197 226 243 232 220 219 224 225 220 216 217 220 221 227 234 238 241 245 248 248 249 250 251 253 254 257
256 227 213 202 197 229 234 204 189 185 185 190 192 185 181 189 193 209 229 236 229 216 214 224 228 221 215 216 220 222 229 236 243 245 246 247 249 251 253 255 257 257 256 257
254 219 198 187 184 184 169 170 172 176 183 188 187 188 193 198 198 204 234 228 213 215 223 234 235 218 214 213 218 224 233 241 247 250 252 251 251 253 257 260 261 260 261 262
230 162 135 119 126 136 148 141 137 154 165 179 187 190 185 185 218 240 240 209 217 213 225 238 231 224 212 213 224 235 241 248 254 258 257 256 257 259 261 263 264 264 264 266
163 141 133 135 142 155 144 113 100 106 112 114 127 164 205 216 211 217 211 204 207 203 221 232 232 232 216 217 233 249 256 260 263 264 259 260 262 264 266 266 265 267 266 265
167 173 182 196 181 156 149 144 143 142 131 118 75 59 55 59 122 151 162 172 189 195 191 204 200 209 236 263 266 269 273 279 280 274 268 267 268 269 269 270 273 271 270 269
126 121 120 109 103 144 152 156 159 165 165 152 121 86 80 84 101 108 115 116 114 88 58 51 49 16 325 302 294 293 290 288 287 285 280 273 271 270 272 272 273 273 273 270